Hourly Weather Debrecen

Today, 13 July, Monday

Time Temperature Precipitation Wind Pressure Humidity
00:00 +12°C° 0 mm 4 mps 756 mmHg 78%
01:00 +12°C° 0 mm 4 mps 756 mmHg 78%
02:00 +12°C° 0 mm 4 mps 756 mmHg 79%
03:00 +12°C° 0 mm 4 mps 755 mmHg 79%
04:00 +11°C° 0 mm 4 mps 755 mmHg 80%
05:00 +13°C° 0 mm 4 mps 755 mmHg 78%
06:00 +14°C° 0 mm 5 mps 755 mmHg 75%
07:00 +15°C° 0 mm 5 mps 755 mmHg 72%
08:00 +17°C° 0 mm 5 mps 755 mmHg 67%
09:00 +19°C° 0 mm 5 mps 755 mmHg 63%
10:00 +20°C° 0 mm 5 mps 755 mmHg 58%
11:00 +21°C° 0 mm 5 mps 754 mmHg 56%
12:00 +21°C° 0 mm 4 mps 754 mmHg 54%
13:00 +22°C° 0 mm 4 mps 754 mmHg 52%
14:00 +22°C° 0 mm 4 mps 754 mmHg 52%
15:00 +22°C° 0 mm 4 mps 753 mmHg 52%
16:00 +22°C° 0 mm 4 mps 753 mmHg 52%
17:00 +20°C° 0 mm 3 mps 753 mmHg 59%
18:00 +19°C° 0 mm 3 mps 753 mmHg 66%
19:00 +18°C° 0 mm 2 mps 753 mmHg 72%
20:00 +17°C° 0 mm 2 mps 753 mmHg 74%
21:00 +16°C° 0 mm 3 mps 753 mmHg 75%
22:00 +14°C° 0 mm 3 mps 753 mmHg 77%
23:00 +13°C° 0 mm 3 mps 753 mmHg 78%

Tomorrow, 14 July, Tuesday

Time Temperature Precipitation Wind Pressure Humidity
00:00 +13°C° 0 mm 3 mps 753 mmHg 80%
01:00 +12°C° 0 mm 3 mps 753 mmHg 82%
02:00 +12°C° 0 mm 3 mps 753 mmHg 84%
03:00 +11°C° 0 mm 3 mps 753 mmHg 87%
04:00 +12°C° 0 mm 2 mps 752 mmHg 89%
05:00 +12°C° 0 mm 3 mps 752 mmHg 85%
06:00 +14°C° 0 mm 3 mps 752 mmHg 81%
07:00 +17°C° 0 mm 3 mps 753 mmHg 76%
08:00 +18°C° 0 mm 3 mps 752 mmHg 70%
09:00 +20°C° 0 mm 3 mps 752 mmHg 63%
10:00 +21°C° 0 mm 3 mps 752 mmHg 57%
11:00 +22°C° 0 mm 3 mps 752 mmHg 55%
12:00 +24°C° 0 mm 3 mps 751 mmHg 53%
13:00 +24°C° 0 mm 3 mps 751 mmHg 51%
14:00 +24°C° 0 mm 3 mps 751 mmHg 51%
15:00 +25°C° 0 mm 3 mps 751 mmHg 52%
16:00 +25°C° 0 mm 2 mps 750 mmHg 52%
17:00 +23°C° 0 mm 2 mps 750 mmHg 58%
18:00 +21°C° 0 mm 2 mps 750 mmHg 63%
19:00 +20°C° 0 mm 1 mps 750 mmHg 69%
20:00 +19°C° 0 mm 1 mps 750 mmHg 71%
21:00 +18°C° 0 mm 1 mps 750 mmHg 73%
22:00 +16°C° 0 mm 1 mps 750 mmHg 75%
23:00 +16°C° 0 mm 1 mps 751 mmHg 77%

Day after tomorrow, 15 July, Wednesday

Time Temperature Precipitation Wind Pressure Humidity
00:00 +15°C° 0 mm 1 mps 751 mmHg 79%
01:00 +15°C° 0 mm 1 mps 751 mmHg 80%
02:00 +15°C° 0 mm 1 mps 750 mmHg 81%
03:00 +14°C° 0 mm 1 mps 750 mmHg 83%
04:00 +14°C° 0 mm 1 mps 750 mmHg 84%
05:00 +16°C° 0 mm 1 mps 750 mmHg 80%
06:00 +17°C° 0 mm 2 mps 750 mmHg 76%
07:00 +19°C° 0 mm 2 mps 750 mmHg 71%
08:00 +20°C° 0 mm 2 mps 750 mmHg 66%
09:00 +23°C° 0 mm 2 mps 750 mmHg 61%
10:00 +25°C° 0 mm 2 mps 750 mmHg 56%
11:00 +25°C° 0 mm 2 mps 750 mmHg 53%
12:00 +26°C° 0 mm 2 mps 750 mmHg 49%
13:00 +27°C° 0 mm 2 mps 750 mmHg 45%
14:00 +27°C° 0 mm 2 mps 750 mmHg 46%
15:00 +27°C° 0 mm 2 mps 749 mmHg 47%
16:00 +27°C° 0 mm 3 mps 749 mmHg 48%
17:00 +25°C° 0 mm 2 mps 749 mmHg 54%
18:00 +24°C° 0 mm 2 mps 749 mmHg 60%
19:00 +22°C° 0 mm 1 mps 749 mmHg 65%
20:00 +22°C° 0 mm 1 mps 749 mmHg 64%
21:00 +21°C° 0 mm 1 mps 749 mmHg 63%
22:00 +18°C° 0 mm 0 mps 749 mmHg 62%
23:00 +18°C° 0 mm 0 mps 749 mmHg 63%

16 July, Thursday

Time Temperature Precipitation Wind Pressure Humidity
00:00 +18°C° 0 mm 0 mps 749 mmHg 63%
01:00 +18°C° 0 mm 0 mps 749 mmHg 64%
02:00 +18°C° 0 mm 0 mps 749 mmHg 65%
03:00 +17°C° 0 mm 0 mps 748 mmHg 66%
04:00 +17°C° 0 mm 0 mps 748 mmHg 66%
05:00 +18°C° 0 mm 0 mps 748 mmHg 66%
06:00 +21°C° 0 mm 1 mps 748 mmHg 65%
07:00 +22°C° 0 mm 1 mps 749 mmHg 65%
08:00 +23°C° 0 mm 1 mps 749 mmHg 61%
09:00 +25°C° 0 mm 1 mps 749 mmHg 58%
10:00 +26°C° 0 mm 2 mps 749 mmHg 55%
11:00 +26°C° 0.1 mm 2 mps 749 mmHg 55%
12:00 +26°C° 0.1 mm 2 mps 748 mmHg 56%
13:00 +26°C° 0.1 mm 2 mps 748 mmHg 57%
14:00 +26°C° 0.2 mm 2 mps 748 mmHg 56%
15:00 +26°C° 0.2 mm 2 mps 748 mmHg 55%
16:00 +27°C° 0.2 mm 2 mps 748 mmHg 54%
17:00 +25°C° 0.4 mm 1 mps 748 mmHg 60%
18:00 +24°C° 0.4 mm 1 mps 748 mmHg 66%
19:00 +22°C° 0.4 mm 1 mps 748 mmHg 73%
20:00 +21°C° 0.3 mm 1 mps 748 mmHg 76%
21:00 +20°C° 0.3 mm 1 mps 748 mmHg 80%
22:00 +19°C° 0.3 mm 1 mps 748 mmHg 83%
23:00 +19°C° 0 mm 1 mps 748 mmHg 85%

17 July, Friday

Time Temperature Precipitation Wind Pressure Humidity
00:00 +19°C° 0 mm 1 mps 748 mmHg 86%
01:00 +19°C° 0 mm 1 mps 748 mmHg 87%
02:00 +17°C° 0.1 mm 2 mps 748 mmHg 89%
03:00 +17°C° 0.1 mm 2 mps 748 mmHg 90%
04:00 +17°C° 0.1 mm 2 mps 748 mmHg 92%
05:00 +17°C° 0.4 mm 2 mps 748 mmHg 92%
06:00 +18°C° 0.4 mm 1 mps 748 mmHg 93%
07:00 +18°C° 0.4 mm 1 mps 748 mmHg 93%
08:00 +19°C° 0.5 mm 1 mps 748 mmHg 91%
09:00 +19°C° 0.5 mm 1 mps 749 mmHg 90%
10:00 +20°C° 0.5 mm 1 mps 749 mmHg 88%
11:00 +20°C° 0.7 mm 1 mps 749 mmHg 88%
12:00 +20°C° 0.7 mm 1 mps 749 mmHg 88%
13:00 +20°C° 0.7 mm 1 mps 749 mmHg 88%
14:00 +21°C° 0.1 mm 1 mps 749 mmHg 85%
15:00 +20°C° 0.1 mm 2 mps 749 mmHg 82%
16:00 +21°C° 0.1 mm 2 mps 749 mmHg 79%
17:00 +20°C° 0.1 mm 2 mps 749 mmHg 82%
18:00 +19°C° 0.1 mm 2 mps 749 mmHg 85%
19:00 +18°C° 0.1 mm 2 mps 749 mmHg 88%
20:00 +19°C° 0.1 mm 1 mps 749 mmHg 90%
21:00 +19°C° 0.1 mm 1 mps 750 mmHg 91%
22:00 +18°C° 0.1 mm 1 mps 750 mmHg 93%
23:00 +18°C° 0.1 mm 1 mps 750 mmHg 93%

18 July, Saturday

Time Temperature Precipitation Wind Pressure Humidity
00:00 +16°C° 0.1 mm 0 mps 750 mmHg 94%
01:00 +16°C° 0.1 mm 0 mps 750 mmHg 94%
02:00 +16°C° 0.1 mm 0 mps 750 mmHg 94%
03:00 +18°C° 0.1 mm 1 mps 749 mmHg 95%
04:00 +18°C° 0.1 mm 1 mps 749 mmHg 95%
05:00 +17°C° 0.1 mm 2 mps 749 mmHg 94%
06:00 +18°C° 0.1 mm 2 mps 750 mmHg 92%
07:00 +18°C° 0.1 mm 2 mps 750 mmHg 91%
08:00 +19°C° 0.1 mm 3 mps 750 mmHg 88%
09:00 +20°C° 0.1 mm 3 mps 750 mmHg 85%
10:00 +21°C° 0.1 mm 3 mps 750 mmHg 82%
11:00 +22°C° 0.2 mm 3 mps 749 mmHg 78%
12:00 +24°C° 0.2 mm 3 mps 749 mmHg 75%
13:00 +25°C° 0.2 mm 3 mps 749 mmHg 72%
14:00 +25°C° 0.1 mm 3 mps 749 mmHg 71%
15:00 +25°C° 0.1 mm 3 mps 748 mmHg 71%
16:00 +25°C° 0.1 mm 3 mps 748 mmHg 70%
17:00 +24°C° 0 mm 3 mps 748 mmHg 75%
18:00 +22°C° 0 mm 3 mps 748 mmHg 79%
19:00 +21°C° 0 mm 2 mps 748 mmHg 84%
20:00 +21°C° 0 mm 3 mps 748 mmHg 86%
21:00 +20°C° 0 mm 3 mps 748 mmHg 88%
22:00 +19°C° 0 mm 3 mps 748 mmHg 89%
23:00 +19°C° 0 mm 3 mps 748 mmHg 90%
Show more